Theta_e
318 322 323 324 326 327 327 327 327 327 326 326 326 326 325 324 324 323 323 324 322 322 320 320 319 320 318 318 318 317 315 314 310 310 307 302 301 300 298 297 295 293 296
313 314 318 320 322 324 325 327 327 326 327 326 326 326 325 325 324 323 323 323 321 320 319 318 318 318 317 317 316 315 315 315 312 309 304 298 300 297 296 292 292 293 290
307 310 311 314 317 320 323 325 326 326 325 326 325 325 325 324 324 323 323 323 320 321 319 318 318 317 315 315 315 314 314 311 310 304 302 297 295 293 289 287 289 289 290
304 305 307 309 312 316 319 322 323 324 324 324 324 324 324 324 323 321 321 321 320 320 319 318 317 315 314 313 312 311 306 304 301 299 291 293 292 287 287 287 287 286 286
301 302 304 307 308 311 314 318 320 321 322 323 323 323 323 321 320 318 317 319 318 317 315 314 313 307 300 306 306 303 302 297 291 290 288 287 287 285 287 286 286 285 285
300 301 303 304 305 308 310 313 315 316 318 319 319 320 318 317 308 306 313 316 314 310 307 303 301 292 294 297 298 299 301 300 292 290 288 288 289 287 286 286 285 285 285
301 301 301 300 302 304 307 308 309 313 315 313 316 316 316 317 302 303 301 313 309 307 304 301 296 294 292 294 295 295 295 297 297 295 290 290 288 288 287 285 285 285 284
296 297 294 293 297 299 301 303 307 310 310 311 312 312 314 309 300 300 298 305 303 301 299 298 296 292 292 292 290 289 289 290 291 292 293 291 292 289 289 288 286 284 283
293 294 293 293 294 295 296 299 304 303 305 309 307 306 306 299 296 297 299 296 293 292 292 293 294 291 291 293 289 287 286 286 291 292 292 293 293 292 288 286 285 285 281
293 294 295 294 293 294 296 297 300 300 302 302 295 299 296 295 294 295 298 295 290 290 288 289 288 290 291 292 289 287 285 285 286 286 287 289 289 289 289 285 284 280 275
291 292 294 294 292 293 294 296 297 295 293 292 293 292 292 293 293 295 295 293 293 290 289 288 288 291 292 292 291 288 288 286 287 285 284 284 284 282 282 284 282 281 280
289 290 291 293 293 293 292 293 292 292 291 291 290 289 290 289 291 294 293 294 293 290 288 288 288 291 292 292 289 290 290 287 284 283 282 282 281 281 282 282 282 282 282
286 287 288 290 291 292 291 290 291 291 293 292 291 291 290 288 289 293 293 292 292 289 288 289 290 291 292 291 290 290 286 285 284 282 281 282 283 283 283 282 283 283 281
283 285 287 288 289 291 290 290 291 291 291 292 290 291 290 288 289 291 291 291 289 288 288 289 290 290 289 288 287 286 285 285 284 282 282 284 283 282 282 282 281 281 281
281 281 283 285 287 290 290 290 290 292 293 292 292 292 289 288 289 291 291 289 289 288 287 287 286 285 285 284 284 283 284 284 282 283 283 282 282 282 281 282 281 280 278
278 280 282 285 287 289 289 289 291 292 292 293 294 293 292 293 292 292 292 291 290 289 287 285 284 284 283 282 281 281 282 282 282 283 283 283 282 281 281 281 281 274 271
278 280 282 283 285 287 288 288 288 290 291 291 292 292 292 291 291 291 291 290 290 289 286 285 284 283 283 282 281 281 281 281 282 282 282 282 282 281 280 280 277 272 269
273 273 277 282 284 287 288 288 289 288 287 288 290 291 291 290 290 290 290 289 286 288 287 285 284 284 283 282 282 282 282 281 282 282 282 282 281 280 279 276 274 269 268
270 271 276 282 285 287 288 288 288 288 288 288 288 289 288 290 290 290 290 288 286 286 286 285 285 284 284 283 283 282 282 282 282 281 281 281 280 277 274 273 273 271 269
271 274 279 283 285 286 287 287 287 287 288 287 286 287 287 287 286 286 287 287 286 286 286 285 285 285 284 284 283 283 282 281 280 280 279 279 278 275 273 272 270 268 266
270 272 276 282 285 286 287 287 287 287 287 287 287 287 287 286 286 286 286 287 286 286 286 285 285 284 284 284 283 282 281 280 279 278 276 274 272 271 271 270 268 267 265
270 272 276 280 285 286 286 286 287 287 287 287 286 286 288 286 286 286 286 287 287 286 286 286 285 285 284 283 282 280 278 276 274 273 272 271 270 269 268 267 266 263 262
270 271 273 278 282 285 285 286 286 286 286 286 286 285 286 286 286 286 286 286 286 285 286 286 284 283 282 282 281 279 277 275 274 272 270 269 268 267 267 265 263 260 260
266 267 270 272 274 278 284 285 285 285 286 286 286 285 286 286 286 286 286 285 285 283 283 281 279 278 278 278 277 277 276 273 272 271 270 268 266 265 265 263 262 260 258
264 264 266 267 269 271 273 278 281 283 284 284 285 285 286 286 286 285 282 280 279 278 277 277 276 275 274 273 272 270 270 270 269 269 268 267 266 264 263 262 260 259 256
262 262 263 264 265 267 268 270 271 272 273 274 275 278 280 276 276 275 274 274 274 273 272 272 272 271 269 269 268 268 267 267 266 266 266 265 264 262 261 261 259 258 256
Wind_Speed
7 11 11 13 15 16 16 17 18 17 17 17 17 17 17 17 17 16 17 16 17 14 11 13 13 11 8 8 7 7 7 7 8 4 3 2 3 4 3 2 2 4 3
8 8 9 10 12 14 17 18 18 18 18 18 17 18 18 18 17 19 18 16 17 15 15 14 14 9 12 10 8 10 9 9 7 9 5 4 3 1 1 1 1 1 3
8 10 11 12 12 15 18 18 17 17 18 17 17 18 19 18 18 18 18 17 16 16 15 15 14 12 12 9 10 9 8 6 6 4 4 1 2 2 2 2 2 3 2
9 11 11 12 12 14 15 15 16 16 18 17 17 19 18 17 17 16 16 15 16 15 15 14 14 14 13 11 9 10 6 5 4 3 2 3 2 1 2 2 1 1 2
10 12 12 13 11 12 12 14 15 16 17 18 17 17 16 15 13 15 14 15 15 14 12 13 11 11 13 10 8 6 5 3 3 3 3 1 2 2 3 2 1 0 1
11 14 13 11 9 11 12 13 13 15 15 15 16 16 15 12 16 18 17 14 13 13 12 7 6 7 7 9 7 8 9 7 5 4 3 4 4 3 3 3 3 2 1
15 14 15 11 12 13 13 12 14 16 13 14 16 16 17 16 18 21 20 13 11 11 10 9 6 5 7 7 9 9 8 8 5 6 5 6 5 6 6 4 3 2 2
17 15 9 10 15 14 13 14 15 12 13 14 14 15 15 12 19 19 19 10 9 8 9 10 10 9 8 9 8 7 6 5 5 4 4 5 4 7 5 4 4 5 3
15 16 11 12 15 14 14 16 15 11 12 14 12 14 15 9 16 17 17 9 7 8 7 8 9 9 12 16 11 9 6 4 6 8 9 9 11 13 10 6 4 4 2
14 17 16 14 15 17 16 17 15 12 15 11 9 11 11 11 16 18 17 8 9 7 7 8 12 11 17 18 11 11 10 8 9 8 8 7 7 7 12 3 5 4 3
16 17 17 15 15 17 17 14 12 12 8 9 11 9 11 13 15 23 21 12 11 10 10 9 8 18 19 19 15 11 10 13 12 9 7 4 4 3 2 3 2 4 4
19 22 21 18 15 14 15 15 12 11 12 12 10 8 8 9 15 24 25 19 17 13 13 9 9 19 20 20 14 16 22 17 8 8 7 5 5 4 3 4 3 3 5
22 25 22 20 18 16 15 14 10 12 13 12 11 11 10 8 9 22 25 22 22 11 8 12 17 19 19 15 17 22 19 10 10 9 7 6 6 5 7 6 3 5 6
22 24 21 20 21 18 12 11 11 12 13 13 12 13 10 9 10 11 13 14 17 12 16 13 15 16 14 12 14 15 9 9 10 9 9 7 6 6 5 4 5 5 6
23 23 23 18 19 19 15 13 13 16 17 14 15 13 14 13 19 22 19 15 14 14 14 12 11 11 11 10 9 9 8 8 9 8 8 8 6 6 5 5 4 4 4
23 19 18 17 16 15 14 14 22 23 21 26 19 17 13 15 19 27 27 24 25 31 14 14 13 13 13 12 11 9 8 10 8 9 10 9 8 8 8 6 4 3 4
20 22 18 19 18 17 14 13 14 10 22 22 22 19 20 15 23 28 28 28 30 28 12 14 14 14 12 12 11 11 10 9 10 9 9 9 9 7 9 7 4 4 4
20 27 19 17 18 16 15 13 11 11 12 12 19 17 19 19 26 28 27 24 17 17 11 13 14 13 14 13 12 11 11 10 10 10 10 9 9 9 9 7 6 4 5
18 16 18 16 15 17 13 12 11 11 13 9 7 15 18 27 30 33 36 17 18 15 12 12 12 12 12 13 13 12 12 12 11 10 10 10 9 8 7 7 6 7 6
17 25 22 16 14 14 11 11 10 10 11 10 10 11 11 17 17 17 16 14 15 14 14 14 14 13 13 14 13 13 12 11 11 10 9 8 8 7 8 8 7 7 4
15 16 21 17 13 12 10 10 8 9 9 9 9 11 20 15 14 15 16 15 14 14 13 13 14 14 13 13 14 15 14 12 11 10 9 7 7 7 6 6 7 6 6
15 14 15 14 12 10 8 6 8 8 9 9 8 9 24 13 12 13 15 13 12 13 13 14 13 14 16 17 15 15 15 14 12 11 10 9 7 7 6 6 7 6 5
15 16 14 13 13 11 8 7 7 7 8 7 9 9 13 13 11 12 12 11 10 11 12 12 13 13 12 13 14 15 16 14 13 12 12 10 9 8 7 7 7 5 5
16 16 15 12 11 13 9 6 6 7 7 7 8 9 12 12 11 12 11 11 11 11 11 12 12 16 15 14 13 13 12 11 11 12 15 12 10 10 8 7 6 6 6
16 16 15 14 13 13 13 12 6 4 4 4 6 8 10 11 10 9 8 9 10 11 11 11 10 15 18 20 18 18 18 20 15 15 10 12 13 13 9 7 7 6 4
16 16 14 13 14 14 13 12 11 10 9 8 6 5 1 3 5 7 8 10 9 9 11 9 11 16 18 15 19 22 22 21 18 17 11 11 11 9 8 9 10 6 6
Wind_Direction
249 243 238 233 232 233 230 230 228 228 227 222 214 211 211 210 207 206 212 211 212 208 198 206 214 212 213 210 205 207 214 209 234 243 197 174 156 168 185 136 82 314 327
263 244 238 236 236 234 232 231 229 228 227 225 218 214 212 210 207 207 209 208 209 202 200 203 213 204 212 206 205 212 214 213 210 235 191 208 189 136 38 24 289 338 324
280 262 253 250 236 233 236 236 232 231 230 226 222 216 213 210 207 208 208 206 202 202 200 203 208 199 207 206 206 212 208 201 206 173 186 165 120 134 50 29 327 336 351
280 272 267 259 253 251 247 243 236 229 228 223 221 220 217 212 208 205 203 202 203 202 201 202 201 198 206 200 204 211 181 178 161 150 167 174 142 84 118 175 353 342 307
284 284 269 262 255 258 254 251 242 232 225 224 220 222 215 210 203 197 196 199 203 204 202 198 195 195 187 184 180 181 167 163 151 148 153 158 166 155 197 135 143 224 271
295 293 288 279 263 253 253 247 239 234 231 222 218 216 210 208 195 186 187 202 198 196 193 178 164 158 160 153 158 174 177 188 185 153 159 193 191 176 150 152 158 164 253
317 313 310 293 274 266 261 253 244 242 231 222 220 210 212 209 187 187 189 198 192 192 181 173 172 169 155 155 161 159 164 181 176 166 182 184 172 178 140 148 150 128 157
310 307 293 282 281 278 269 258 256 243 230 221 219 210 210 209 189 188 181 181 182 181 173 176 180 170 175 157 148 141 148 148 163 156 181 169 161 144 143 165 151 119 88
306 301 289 282 284 285 275 272 260 238 232 225 213 206 205 202 189 176 172 168 162 174 168 168 174 173 168 162 160 152 137 139 131 131 121 136 141 142 138 125 146 156 124
302 298 295 289 282 283 278 272 262 237 234 222 217 205 200 192 184 176 176 165 169 165 163 170 172 174 170 172 164 157 152 155 135 126 108 103 107 131 141 165 154 159 144
300 292 293 288 278 273 274 269 254 232 224 214 217 206 199 190 184 181 175 176 180 173 177 175 177 173 176 176 167 171 167 148 146 124 115 122 102 90 89 91 35 136 131
303 299 295 291 282 278 270 267 246 228 222 215 212 214 206 198 192 186 179 181 177 178 183 170 167 170 174 175 162 163 152 142 141 134 140 158 147 142 126 116 111 94 79
300 295 293 292 284 275 267 260 242 231 228 223 210 212 210 197 198 188 181 176 172 172 169 161 161 166 165 159 161 156 148 151 150 152 160 168 155 143 135 126 128 119 96
295 291 293 290 289 280 262 247 232 231 228 222 214 213 200 189 194 196 186 172 171 156 154 156 159 158 151 149 150 149 158 155 164 161 161 149 136 155 162 130 150 148 117
295 293 290 286 281 278 263 245 231 232 222 219 214 204 187 196 205 190 183 180 174 167 149 145 152 153 152 154 153 158 149 154 157 158 153 153 158 158 143 155 163 156 122
293 289 287 289 285 276 266 263 241 236 231 232 222 205 208 223 188 189 185 179 168 157 157 164 165 166 164 161 162 154 160 162 165 164 160 164 163 162 158 160 158 131 126
296 298 291 287 283 276 261 253 258 230 236 227 223 216 209 195 180 182 174 165 162 160 174 174 170 168 166 166 159 167 167 162 157 162 166 172 167 162 157 164 151 145 113
292 287 281 277 278 271 261 246 240 233 232 224 221 210 193 179 173 174 168 156 168 185 184 176 167 171 166 164 163 164 162 154 161 164 173 171 168 167 164 160 155 133 116
295 291 282 276 274 270 257 242 234 230 233 225 201 196 185 174 172 171 171 178 178 186 180 177 166 169 172 161 164 163 156 161 163 166 169 167 170 163 158 151 141 129 119
298 288 282 279 276 268 246 238 233 228 224 212 201 190 174 164 177 181 186 185 182 183 179 175 168 163 169 167 161 156 151 160 160 163 166 165 166 167 160 150 144 143 133
299 292 289 286 275 266 247 234 229 227 219 214 206 188 183 183 183 189 187 190 186 185 178 176 166 162 163 169 161 151 157 160 161 158 158 158 161 159 148 139 139 135 136
302 297 300 298 284 269 253 238 233 228 217 216 201 193 190 195 189 196 196 196 190 181 177 170 169 170 168 163 161 153 156 159 156 156 157 156 153 148 143 143 140 138 136
317 317 314 316 310 279 257 239 231 231 225 213 198 190 193 201 197 193 191 185 178 172 174 170 167 164 163 156 159 156 159 163 165 155 152 153 151 149 151 150 149 138 145
328 329 329 331 338 330 299 267 248 235 230 214 201 196 200 203 199 194 186 174 169 165 164 160 166 166 148 153 147 144 143 144 149 150 149 151 148 146 140 139 149 148 148
339 340 342 343 346 347 342 344 327 306 254 221 209 207 206 201 194 181 165 161 159 162 160 155 153 157 147 149 141 134 137 139 141 144 144 142 144 144 143 144 150 146 132
344 344 347 350 352 353 350 353 357 357 1 3 2 1 35 96 126 144 150 149 151 143 135 131 148 138 139 132 131 132 137 137 138 139 137 137 142 138 141 148 155 152 148